{"data":{"norad_id":67121,"epoch":"2026-09-19T10:07:58.039392Z","epoch_age_seconds":171327,"freshness":"FRESH","line1":"1 67121U 25299V   26262.42219953  .00009728  00000+0  36250-3 0  9991","line2":"2 67121  43.0033 155.0160 0001929 268.7161  91.3469 15.27586878 42748","mean_motion":15.27586878,"eccentricity":0.0001929,"inclination_deg":43.0033,"raan_deg":155.016,"arg_perigee_deg":268.7161,"mean_anomaly_deg":91.3469,"bstar":0.0003625,"rev_number":4274,"period_min":94.266324275142,"perigee_km":481.70498208546,"apogee_km":484.35201973571,"semimajor_km":6861.1655009106,"source":"CELESTRAK","updated_at":"2026-09-21T09:00:36.107539Z"}}